Home   Weather   Naples   Past weeks

Flag for USA Past Weather in Naples, Florida, USA — Yesterday and Last 2 Weeks

Now
68 °F

Passing clouds.


Feels Like: 68 °F
Forecast: 64 / 82 °F
Wind: 14 mph from East

Location: Naples Municipal

Current Time: Dec 11, 2016 at 5:08:13 am

Latest Report: Dec 11, 2016 at 3:53 am


Visibility: 10 mi

Pressure: 30.16 "Hg

Humidity: 84%

Dew Point: 63 °F

Location of NaplesLocation

Past Weather in Naples — Graph

°F

Naples Temperature Yesterday

Maximum temperature yesterday: 76 °F (at 1:53 pm)
Minimum temperature yesterday: 59 °F (at 1:53 am)
Average temperature yesterday: 67 °F

High & Low Weather Summary for the Past Weeks

 TemperatureHumidityPressure
High86 °F (Dec 4, 1:53 pm)100% (Dec 2, 2:53 am)30.27 "Hg (Dec 2, 2:53 am)
Low59 °F (Dec 10, 1:53 am)29% (Nov 27, 3:53 pm)29.90 "Hg (Dec 6, 4:53 am)
Average73 °F76%30.04 "Hg
* Reported Nov 26 3:53 am — Dec 11 3:53 am, Naples, Weather by CustomWeather, © 2016

Note: Actual official high and low records may vary slightly from our data, if they occured in-between our weather recording intervals... More about our weather records

Advertising

Naples Weather History for the Previous 24 Hours

Scroll right to see more
 ConditionsComfort  
Time TempWeatherWind HumidityBarometerVisibility
3:53 am
Sun, Dec 11
68 °FPassing clouds.14 mph84%30.16 "Hg10 mi
2:53 am68 °FOvercast.12 mph84%30.17 "Hg10 mi
1:53 am68 °FOvercast.14 mph84%30.18 "Hg10 mi
12:53 am68 °FPassing clouds.15 mph84%30.20 "Hg10 mi
11:53 pm
Sat, Dec 10
68 °FClear.12 mph82%30.21 "Hg10 mi
10:53 pm69 °FOvercast.10 mph76%30.23 "Hg10 mi
9:53 pm69 °FOvercast.14 mph79%30.24 "Hg10 mi
8:53 pm70 °FOvercast.13 mph76%30.23 "Hg10 mi
7:53 pm70 °FOvercast.13 mph79%30.22 "Hg10 mi
6:53 pm71 °FPassing clouds.12 mph76%30.21 "Hg10 mi
5:53 pm71 °FPassing clouds.14 mph76%30.20 "Hg10 mi
4:53 pm73 °FPartly sunny.14 mph71%30.19 "Hg10 mi
3:53 pm76 °FBroken clouds.12 mph64%30.17 "Hg10 mi
3:01 pm75 °FOvercast.14 mph66%30.18 "Hg10 mi
1:53 pm76 °FPartly sunny.13 mph62%30.19 "Hg10 mi
12:53 pm74 °FPassing clouds.17 mph67%30.21 "Hg10 mi
11:53 am70 °FSunny.14 mph71%30.24 "Hg10 mi
10:53 am67 °FSunny.13 mph71%30.26 "Hg10 mi
9:53 am64 °FPassing clouds.15 mph73%30.27 "Hg10 mi
8:53 am61 °FPassing clouds.10 mph72%30.27 "Hg10 mi
7:53 am60 °FScattered clouds.9 mph72%30.26 "Hg10 mi
6:53 am59 °FPassing clouds.14 mph72%30.23 "Hg10 mi
5:53 am59 °FPassing clouds.13 mph72%30.24 "Hg10 mi
Weather by CustomWeather, © 2016

See weather overviewHow to use our weather pages